Simultaneous Nadir Overpasses (SNOs) Predictions

Prediction of SNOs between AURA and NPP Satellite Orbit:

Table of predicted SNOs for the next 14.0 days since TLE Epoch: 12/8/2017
Index Date (AURA) Time (AURA) Lat,Lon (AURA) SZA (AURA ) Date (NPP) Time (NPP) Lat,Lon (NPP) SZA (NPP ) Distance(km) Time Diff (sec)
1 12/10/2017 19:08:32 79.61, 150.51 114.50 12/10/2017 19:08:03 79.61, 150.53 114.51 0.44 29
2 12/10/2017 19:57:54 -79.79, -40.46 65.77 12/10/2017 19:58:43 -79.79, -40.57 65.79 2.30 49
3 12/13/2017 11:24:59 79.73, -92.69 114.57 12/13/2017 11:24:53 79.74, -92.55 114.55 2.80 6
4 12/13/2017 12:14:22 -79.88, 76.10 65.65 12/13/2017 12:15:34 -79.88, 76.10 65.70 0.25 72
5 12/16/2017 02:52:10 -79.48,-146.24 64.89 12/16/2017 02:51:11 -79.48,-146.34 64.83 2.12 59
6 12/16/2017 03:41:29 79.74, 23.26 114.75 12/16/2017 03:41:47 79.74, 23.22 114.75 0.74 18
7 12/18/2017 19:08:37 -79.60, -29.53 64.91 12/18/2017 19:08:01 -79.61, -29.48 64.90 1.25 36
8 12/18/2017 19:57:56 79.85, 140.00 114.74 12/18/2017 19:58:37 79.86, 140.13 114.68 2.67 41
9 12/21/2017 11:25:05 -79.64, 86.62 64.87 12/21/2017 11:24:53 -79.64, 86.55 64.85 1.29 12




NCC Satellite Simultaneous Nadir Overpasses (SNOs) Prediction Service
